TimeICT,TemperatureF,Dew PointF,Humidity,Sea Level PressureIn,VisibilityMPH,Wind Direction,Wind SpeedMPH,Gust SpeedMPH,PrecipitationIn,Events,Conditions,WindDirDegrees,DateUTC
12:00 AM,80.6,75.2,84,29.89,5.0,South,3.5,-,N/A,,Mostly Cloudy,180,2013-03-02 17:00:00
12:30 AM,80.6,75.2,84,29.89,5.0,South,3.5,-,N/A,,Mostly Cloudy,170,2013-03-02 17:30:00
1:00 AM,80.6,75.2,84,29.86,4.3,South,4.6,-,N/A,,Mostly Cloudy,190,2013-03-02 18:00:00
1:30 AM,80.6,75.2,84,29.86,4.3,South,3.5,-,N/A,,Mostly Cloudy,170,2013-03-02 18:30:00
2:00 AM,80.6,75.2,84,29.86,4.3,South,3.5,-,N/A,,Mostly Cloudy,180,2013-03-02 19:00:00
4:00 AM,78.8,75.2,89,29.86,4.3,Calm,Calm,-,N/A,,Mostly Cloudy,0,2013-03-02 21:00:00
4:30 AM,78.8,75.2,89,29.86,4.3,West,3.5,-,N/A,,Mostly Cloudy,270,2013-03-02 21:30:00
5:00 AM,78.8,75.2,89,29.86,3.7,Calm,Calm,-,N/A,,Mostly Cloudy,0,2013-03-02 22:00:00
5:30 AM,78.8,75.2,89,29.86,3.7,Calm,Calm,-,N/A,,Mostly Cloudy,0,2013-03-02 22:30:00
6:00 AM,78.8,75.2,89,29.86,3.7,North,4.6,-,N/A,,Mostly Cloudy,350,2013-03-02 23:00:00
6:30 AM,78.8,75.2,89,29.86,3.1,North,3.5,-,N/A,,Mostly Cloudy,360,2013-03-02 23:30:00
7:00 AM,78.8,75.2,89,29.89,3.1,Calm,Calm,-,N/A,,Mostly Cloudy,0,2013-03-03 00:00:00
7:30 AM,80.6,75.2,84,29.89,3.1,Calm,Calm,-,N/A,,Mostly Cloudy,0,2013-03-03 00:30:00
8:00 AM,80.6,75.2,84,29.92,3.1,Calm,Calm,-,N/A,,Mostly Cloudy,0,2013-03-03 01:00:00
9:00 AM,86.0,77.0,74,29.92,3.7,South,6.9,-,N/A,,Mostly Cloudy,180,2013-03-03 02:00:00
10:00 AM,87.8,77.0,70,29.95,3.7,South,9.2,-,N/A,,Mostly Cloudy,180,2013-03-03 03:00:00
10:30 AM,87.8,75.2,66,29.95,3.7,SSE,9.2,-,N/A,,Mostly Cloudy,160,2013-03-03 03:30:00
11:00 AM,87.8,77.0,70,29.95,3.7,SSE,3.5,-,N/A,,Mostly Cloudy,150,2013-03-03 04:00:00
11:30 AM,87.8,75.2,66,29.95,4.3,SSE,9.2,-,N/A,,Mostly Cloudy,160,2013-03-03 04:30:00
12:00 PM,87.8,75.2,66,29.95,4.3,South,9.2,-,N/A,,Mostly Cloudy,170,2013-03-03 05:00:00
12:30 PM,87.8,75.2,66,29.92,4.3,South,11.5,-,N/A,,Mostly Cloudy,190,2013-03-03 05:30:00
1:00 PM,89.6,75.2,62,29.92,3.7,South,9.2,-,N/A,,Mostly Cloudy,190,2013-03-03 06:00:00
1:30 PM,89.6,75.2,62,29.89,3.7,South,11.5,-,N/A,,Mostly Cloudy,180,2013-03-03 06:30:00
2:00 PM,89.6,75.2,62,29.89,3.7,South,9.2,-,N/A,,Mostly Cloudy,170,2013-03-03 07:00:00
2:30 PM,89.6,75.2,62,29.89,3.7,SSW,11.5,-,N/A,,Mostly Cloudy,200,2013-03-03 07:30:00
3:00 PM,87.8,75.2,66,29.86,3.7,South,11.5,-,N/A,,Mostly Cloudy,180,2013-03-03 08:00:00
3:30 PM,87.8,75.2,66,29.86,3.7,SSW,9.2,-,N/A,,Mostly Cloudy,200,2013-03-03 08:30:00
4:00 PM,87.8,75.2,66,29.86,3.7,South,6.9,-,N/A,,Mostly Cloudy,180,2013-03-03 09:00:00
4:30 PM,87.8,75.2,66,29.86,3.7,SSE,6.9,-,N/A,,Mostly Cloudy,160,2013-03-03 09:30:00
5:00 PM,86.0,75.2,70,29.86,3.7,SSW,6.9,-,N/A,,Mostly Cloudy,200,2013-03-03 10:00:00
5:30 PM,84.2,75.2,74,29.86,3.7,SSW,9.2,-,N/A,,Mostly Cloudy,200,2013-03-03 10:30:00
6:00 PM,84.2,75.2,74,29.86,3.7,South,6.9,-,N/A,,Mostly Cloudy,190,2013-03-03 11:00:00
6:30 PM,84.2,75.2,74,29.89,3.7,SSW,4.6,-,N/A,,Mostly Cloudy,200,2013-03-03 11:30:00
7:00 PM,84.2,73.4,70,29.89,3.7,SSW,3.5,-,N/A,,Mostly Cloudy,200,2013-03-03 12:00:00
7:30 PM,84.2,73.4,70,29.89,3.7,Calm,Calm,-,N/A,,Mostly Cloudy,0,2013-03-03 12:30:00
8:00 PM,84.2,75.2,74,29.92,3.7,North,3.5,-,N/A,,Mostly Cloudy,0,2013-03-03 13:00:00
8:30 PM,84.2,75.2,74,29.92,3.7,Calm,Calm,-,N/A,,Mostly Cloudy,0,2013-03-03 13:30:00
9:00 PM,84.2,75.2,74,29.92,3.7,Calm,Calm,-,N/A,,Mostly Cloudy,0,2013-03-03 14:00:00
9:30 PM,82.4,75.2,79,29.95,3.7,Calm,Calm,-,N/A,,Mostly Cloudy,0,2013-03-03 14:30:00
10:00 PM,84.2,73.4,70,29.95,3.7,SSE,3.5,-,N/A,,Mostly Cloudy,160,2013-03-03 15:00:00
10:30 PM,84.2,73.4,70,29.95,3.7,SE,3.5,-,N/A,,Mostly Cloudy,140,2013-03-03 15:30:00
11:00 PM,84.2,73.4,70,29.95,3.7,SE,3.5,-,N/A,,Mostly Cloudy,140,2013-03-03 16:00:00
11:30 PM,80.6,75.2,84,29.98,3.1,NE,4.6,-,N/A,Rain,Light Rain Showers,40,2013-03-03 16:30:00